Location: Unspecified
(22.6800°N, 112.2000°E)
Time: 11:41:22
(UTC+08:00)

Transit 2A - Pass Details

Date: 09 August 2021
Orbit: 595 x 963 km, 66.7° (Epoch: 16 September)

Event Time Altitude Azimuth Distance (km) Brightness Sun altitude
Rises 03:34:55 0° 187° (S) 2,825 - -31.8°
Reaches altitude 10° 03:37:13 10° 180° (S) 1,918 - -31.4°
Maximum altitude 03:41:14 42° 110° (ESE) 859 - -30.6°
Exits shadow 03:42:24 34° 71° (ENE) 997 7.0 -30.4°
Drops below altitude 10° 03:45:23 10° 39° (NE) 1,972 9.0 -29.9°
Sets 03:47:47 0° 32° (NNE) 2,915 10.0 -29.4°
